Location: Arroyo de Valdeoliva
(40.1604°N, 4.9878°W)
Time: 13:25:01
(UTC+00:00)

ARIANE 6 FM1 Upper Stage - Visible Passes

Search period start: 15 February 2026 00:00
Search period end: 25 February 2026 00:00
Orbit: 522 x 609 km, 62.0° (Epoch: 15 February)

Date Brightness Start Highest point End Pass type
(mag) Time Alt. Az. Time Alt. Az. Time Alt. Az.
15 Feb 3.9 19:19:06 10° NNW 19:22:03 23° NE 19:22:03 23° NE visible
15 Feb 5.7 20:57:48 10° NW 20:58:06 12° NW 20:58:06 12° NW visible
16 Feb 3.2 19:18:49 10° NNW 19:22:25 33° NE 19:22:43 33° ENE visible
16 Feb 5.7 20:58:08 10° WNW 20:58:46 13° WNW 20:58:46 13° WNW visible
17 Feb 2.7 19:18:37 10° NNW 19:22:28 49° NE 19:23:34 37° E visible
17 Feb 5.7 20:58:49 10° W 20:59:37 13° W 20:59:37 13° W visible
18 Feb 2.4 19:18:29 10° NNW 19:22:26 75° NE 19:24:37 26° SE visible
19 Feb 2.7 19:18:27 10° NW 19:22:23 71° SW 19:25:59 12° SSE visible
20 Feb 3.6 19:18:30 10° NW 19:22:17 44° WSW 19:26:05 10° SSE visible
21 Feb 4.6 19:18:42 10° WNW 19:22:08 29° WSW 19:25:36 10° S visible
22 Feb 5.3 19:19:06 10° WNW 19:21:57 19° WSW 19:24:49 10° SSW visible
23 Feb 5.8 19:19:59 10° W 19:21:44 13° WSW 19:23:28 10° SW visible
